TimeEST,TemperatureF,Dew PointF,Humidity,Sea Level PressureIn,VisibilityMPH,Wind Direction,Wind SpeedMPH,Gust SpeedMPH,PrecipitationIn,Events,Conditions,WindDirDegrees,DateUTC
12:54 AM,71.1,66.0,84,29.64,8.0,SSW,17.3,25.3,0.00,,Overcast,200,2013-11-27 05:54:00
1:54 AM,72.0,68.0,87,29.61,7.0,South,18.4,29.9,0.01,Rain,Light Rain,190,2013-11-27 06:54:00
2:03 AM,72.0,68.0,87,29.62,1.8,SSW,18.4,31.1,0.13,Rain,Heavy Rain,200,2013-11-27 07:03:00
2:09 AM,71.1,68.0,90,29.62,1.8,South,16.1,29.9,0.14,Rain,Light Rain,190,2013-11-27 07:09:00
2:13 AM,72.0,68.0,87,29.62,4.0,SSW,16.1,29.9,0.14,Rain,Light Rain,200,2013-11-27 07:13:00
2:43 AM,70.0,66.9,90,29.61,2.0,SW,13.8,26.5,0.30,Rain,Heavy Rain,220,2013-11-27 07:43:00
2:50 AM,69.8,66.2,88,29.61,1.2,SW,17.3,25.3,0.46,Rain,Heavy Rain,220,2013-11-27 07:50:00
2:54 AM,69.1,66.0,90,29.60,1.5,SW,15.0,25.3,0.46,Rain,Light Rain,220,2013-11-27 07:54:00
2:59 AM,69.1,66.0,90,29.61,4.0,SW,17.3,-,0.00,Rain,Light Rain,230,2013-11-27 07:59:00
3:13 AM,69.1,66.0,90,29.61,7.0,SW,10.4,-,0.01,Rain,Light Rain,220,2013-11-27 08:13:00
3:54 AM,70.0,66.9,90,29.56,6.0,South,17.3,27.6,0.03,Rain,Light Rain,190,2013-11-27 08:54:00
4:01 AM,70.0,66.9,90,29.56,8.0,South,15.0,27.6,0.00,,Overcast,190,2013-11-27 09:01:00
4:39 AM,70.0,66.0,87,29.56,8.0,South,13.8,24.2,0.00,,Overcast,190,2013-11-27 09:39:00
4:54 AM,69.1,66.0,90,29.55,8.0,South,12.7,26.5,0.00,,Overcast,190,2013-11-27 09:54:00
5:49 AM,69.8,66.2,88,29.53,8.0,South,11.5,24.2,0.03,,Overcast,190,2013-11-27 10:49:00
5:54 AM,69.1,66.0,90,29.52,7.0,South,15.0,24.2,0.03,,Overcast,190,2013-11-27 10:54:00
6:06 AM,70.0,66.0,87,29.52,7.0,South,15.0,27.6,N/A,,Overcast,190,2013-11-27 11:06:00
6:22 AM,69.1,66.0,90,29.51,8.0,South,16.1,26.5,N/A,,Mostly Cloudy,190,2013-11-27 11:22:00
6:54 AM,69.1,64.9,87,29.49,9.0,South,12.7,21.9,N/A,,Mostly Cloudy,180,2013-11-27 11:54:00
7:01 AM,69.1,64.9,87,29.50,10.0,SSW,13.8,-,N/A,,Scattered Clouds,200,2013-11-27 12:01:00
7:08 AM,69.1,64.9,87,29.50,9.0,South,11.5,20.7,N/A,,Mostly Cloudy,190,2013-11-27 12:08:00
7:50 AM,69.8,66.2,88,29.48,1.0,South,11.5,-,0.04,Rain,Light Rain,190,2013-11-27 12:50:00
7:54 AM,69.1,66.9,93,29.47,1.0,South,11.5,-,0.04,Rain,Light Rain,180,2013-11-27 12:54:00
8:01 AM,69.1,66.9,93,29.47,7.0,South,6.9,-,0.00,,Overcast,190,2013-11-27 13:01:00
8:10 AM,70.0,66.9,90,29.46,7.0,South,9.2,-,0.00,Rain,Light Rain,180,2013-11-27 13:10:00
8:22 AM,70.0,66.9,90,29.45,2.0,SSE,12.7,24.2,0.02,Rain,Light Rain,160,2013-11-27 13:22:00
8:26 AM,70.0,66.9,90,29.45,2.0,South,15.0,25.3,0.09,Fog-Rain,Rain,170,2013-11-27 13:26:00
8:33 AM,70.0,66.9,90,29.44,0.5,South,10.4,-,0.16,Rain,Heavy Rain,180,2013-11-27 13:33:00
8:36 AM,70.0,66.9,90,29.44,1.0,South,9.2,-,0.18,Rain,Heavy Rain,170,2013-11-27 13:36:00
8:49 AM,69.8,66.2,88,29.44,0.8,SSW,13.8,31.1,0.36,Rain,Heavy Rain,210,2013-11-27 13:49:00
8:52 AM,69.8,66.2,88,29.44,1.0,SSW,17.3,23.0,0.36,Rain,Heavy Rain,210,2013-11-27 13:52:00
8:54 AM,70.0,66.9,90,29.44,1.2,SSW,18.4,25.3,0.36,Rain,Rain,210,2013-11-27 13:54:00
8:58 AM,70.0,66.9,90,29.45,3.0,SW,18.4,26.5,0.00,Rain,Light Rain,220,2013-11-27 13:58:00
9:36 AM,69.1,66.0,90,29.46,8.0,SSW,9.2,-,0.00,,Overcast,210,2013-11-27 14:36:00
9:47 AM,69.1,66.0,90,29.46,8.0,SSW,9.2,-,0.00,,Overcast,210,2013-11-27 14:47:00
9:54 AM,69.1,66.0,90,29.45,8.0,SW,9.2,-,0.00,,Overcast,220,2013-11-27 14:54:00
10:28 AM,66.0,63.0,90,29.46,2.0,WNW,19.6,33.4,0.03,Rain,Rain,300,2013-11-27 15:28:00
10:37 AM,64.9,61.0,87,29.47,2.5,West,12.7,-,0.04,Rain,Light Rain,280,2013-11-27 15:37:00
10:40 AM,64.9,62.1,90,29.47,4.0,West,10.4,21.9,0.04,Rain,Light Rain,280,2013-11-27 15:40:00
10:54 AM,64.9,62.1,90,29.44,6.0,NNW,13.8,-,0.04,,Overcast,330,2013-11-27 15:54:00
11:00 AM,62.1,59.0,90,29.45,10.0,NNW,13.8,-,N/A,,Overcast,330,2013-11-27 16:00:00
11:54 AM,55.9,53.1,90,29.48,4.0,NW,15.0,-,0.03,Rain,Light Rain,310,2013-11-27 16:54:00
12:50 PM,53.6,50.0,88,29.51,10.0,NW,12.7,-,0.01,,Overcast,320,2013-11-27 17:50:00
12:54 PM,54.0,50.0,86,29.50,10.0,NNW,12.7,-,0.01,,Overcast,330,2013-11-27 17:54:00
1:18 PM,53.1,48.9,86,29.52,6.0,NW,15.0,-,0.00,,Drizzle,310,2013-11-27 18:18:00
1:49 PM,51.8,48.2,88,29.56,6.0,NW,15.0,-,0.00,,Overcast,320,2013-11-27 18:49:00
1:54 PM,52.0,48.0,86,29.55,5.0,NNW,17.3,-,0.00,,Overcast,330,2013-11-27 18:54:00
2:54 PM,48.9,44.1,83,29.62,10.0,NNW,21.9,28.8,N/A,,Overcast,330,2013-11-27 19:54:00
3:27 PM,48.0,44.1,86,29.67,1.5,NW,17.3,-,0.00,Rain,Light Rain,320,2013-11-27 20:27:00
3:34 PM,48.0,45.0,89,29.68,1.5,NW,11.5,-,0.00,Rain,Light Rain,320,2013-11-27 20:34:00
3:41 PM,48.0,44.1,86,29.70,1.5,NW,16.1,21.9,0.00,Rain,Light Rain,320,2013-11-27 20:41:00
3:49 PM,46.4,42.8,87,29.71,1.5,WNW,15.0,26.5,0.01,Rain,Light Rain,300,2013-11-27 20:49:00
3:54 PM,46.0,43.0,89,29.71,1.5,WNW,19.6,-,0.01,Rain,Light Rain,290,2013-11-27 20:54:00
4:02 PM,45.0,42.1,90,29.73,1.5,WNW,19.6,28.8,0.00,,Overcast,300,2013-11-27 21:02:00
4:22 PM,44.1,41.0,89,29.74,1.5,NW,15.0,25.3,0.00,,Overcast,310,2013-11-27 21:22:00
4:37 PM,44.1,42.1,93,29.76,1.5,WNW,16.1,23.0,0.00,,Overcast,300,2013-11-27 21:37:00
4:54 PM,44.1,41.0,89,29.77,1.5,NW,17.3,24.2,0.01,,Overcast,310,2013-11-27 21:54:00
5:13 PM,43.0,39.0,86,29.80,1.5,NW,18.4,-,N/A,,Overcast,310,2013-11-27 22:13:00
5:54 PM,43.0,39.0,86,29.84,1.5,NW,16.1,24.2,N/A,,Overcast,310,2013-11-27 22:54:00
6:43 PM,42.1,37.9,85,29.90,10.0,NW,13.8,-,N/A,,Overcast,310,2013-11-27 23:43:00
6:54 PM,42.1,37.9,85,29.90,9.0,NW,16.1,-,N/A,,Overcast,320,2013-11-27 23:54:00
7:54 PM,39.9,37.0,89,29.94,7.0,NW,16.1,24.2,0.00,,Overcast,320,2013-11-28 00:54:00
8:04 PM,39.9,37.0,89,29.96,6.0,WNW,11.5,-,N/A,,Overcast,300,2013-11-28 01:04:00
8:10 PM,39.9,37.0,89,29.97,7.0,WNW,11.5,-,N/A,,Overcast,300,2013-11-28 01:10:00
8:51 PM,39.2,33.8,81,30.00,6.0,NW,18.4,26.5,0.00,,Haze,310,2013-11-28 01:51:00
8:54 PM,39.0,33.1,79,30.00,6.0,NW,17.3,25.3,0.00,Rain,Light Rain,310,2013-11-28 01:54:00
9:54 PM,39.0,33.1,79,30.04,7.0,WNW,15.0,20.7,0.00,,Overcast,300,2013-11-28 02:54:00
10:54 PM,37.9,28.0,68,30.09,7.0,WNW,13.8,24.2,N/A,,Mostly Cloudy,300,2013-11-28 03:54:00
11:54 PM,36.0,24.1,62,30.13,-9999.0,NW,12.7,-,N/A,,Partly Cloudy,310,2013-11-28 04:54:00